This is the latest recevied weather packets stored in our database for station/object N4ASP-13. If no packets are shown the sender has not sent any weather packets the latest 10 day(s).
| Time | Temp. | Humidity | Pressure | Rain* | Wind** | Luminosity | Snow |
|---|---|---|---|---|---|---|---|
| 1777566546 | 18.33° C | 62% | 1011 hPa | 0 mm | - | 1079 W/m² | - |
| 1777566486 | 18.33° C | 62% | 1011 hPa | 0 mm | - | 1071 W/m² | - |
| 1777566426 | 18.33° C | 61% | 1011 hPa | 0 mm | - | 1072 W/m² | - |
| 1777566366 | 18.33° C | 63% | 1011 hPa | 0 mm | - | 1067 W/m² | - |
| 1777566305 | 17.78° C | 61% | 1011 hPa | 0 mm | - | 1071 W/m² | - |
| 1777566245 | 17.78° C | 62% | 1011 hPa | 0 mm | - | 1069 W/m² | - |
| 1777566187 | 17.78° C | 63% | 1011 hPa | 0 mm | - | 1071 W/m² | - |
| 1777566125 | 17.78° C | 61% | 1011.1 hPa | 0 mm | - | 1076 W/m² | - |
| 1777566065 | 17.78° C | 61% | 1011 hPa | 0 mm | - | 1074 W/m² | - |
| 1777566006 | 17.78° C | 60% | 1011 hPa | 0 mm | - | 1072 W/m² | - |
| 1777565946 | 17.78° C | 60% | 1011 hPa | 0 mm | - | 1072 W/m² | - |
| 1777565886 | 17.78° C | 59% | 1011 hPa | 0 mm | - | 1072 W/m² | - |
| 1777565826 | 17.78° C | 61% | 1011 hPa | 0 mm | - | 1076 W/m² | - |
| 1777565766 | 17.78° C | 60% | 1011.1 hPa | 0 mm | - | 1074 W/m² | - |
| 1777565705 | 17.78° C | 61% | 1011.1 hPa | 0 mm | - | 1074 W/m² | - |
| 1777565647 | 17.78° C | 62% | 1011.1 hPa | 0 mm | - | 1071 W/m² | - |
| 1777565587 | 17.78° C | 62% | 1011 hPa | 0 mm | - | 1067 W/m² | - |
| 1777565526 | 17.78° C | 63% | 1011 hPa | 0 mm | - | 1058 W/m² | - |
| 1777565467 | 17.78° C | 62% | 1011 hPa | 0 mm | - | 1055 W/m² | - |
| 1777565402 | 17.22° C | 65% | 1011.1 hPa | 0 mm | - | 1056 W/m² | - |
| 1777565343 | 17.22° C | 65% | 1011.1 hPa | 0 mm | - | 1051 W/m² | - |
| 1777565283 | 17.22° C | 63% | 1011 hPa | 0 mm | - | 1055 W/m² | - |
| 1777565221 | 17.22° C | 65% | 1011 hPa | 0 mm | - | 1058 W/m² | - |
| 1777565161 | 17.22° C | 63% | 1011 hPa | 0 mm | - | 1062 W/m² | - |
| 1777565102 | 17.22° C | 64% | 1011.1 hPa | 0 mm | - | 1048 W/m² | - |
* Rain latest hour (hover to see other rain measurements)
** Current wind speed in m/s (hover to see current wind gust speed)